Flag for Germany Weather past 2 weeks in Friedrichshafen, Baden-Württemberg, Germany

Now
61 °F

Clear.


Feels Like: 61 °F
Forecast: 58 / 67 °F
Wind: 1 mph from North

Location: Friedrichshafen Airport

Current Time: Sep 20, 2014 at 2:43:35 AM

Latest Report: Sep 20, 2014 at 1:50 AM


Visibility: 10 mi

Pressure: 30.04 "Hg

Humidity: 88%

Dew point: 57 °F

Location of FriedrichshafenLocation

Historic Weather in Friedrichshafen — Graph

°F

Friedrichshafen temperature yesterday

Maximum temperature yesterday: 75 °F (at 3:20 PM)
Minimum temperature yesterday: 55 °F (at 6:50 AM)
Average temperature yesterday: 64 °F

Past Weeks' High & Low Weather Summary

 TemperatureHumidityPressure
High79 °F (Sep 8, 3:50 PM)94% (Sep 5, 2:50 AM)30.15 "Hg (Sep 5, 2:50 AM)
Low48 °F (Sep 12, 6:20 AM)42% (Sep 7, 5:20 PM)29.86 "Hg (Sep 17, 4:20 PM)
Average62 °F78%30.00 "Hg
* Reported Sep 5 1:20 AM — Sep 20 1:20 AM, Friedrichshafen, Weather by CustomWeather, © 2014

Note: Actual official high and low records may vary slightly from our data, if they occured in-between our weather recording intervals... More about our weather records

Advertising

Friedrichshafen weather history for previous 24 hours

 ConditionsComfort  
Time TempWeatherWind HumidityBarometerVisibility
1:20 AM
Sep 20
61 °FSprinkles. Overcast.3 mph88%30.04 "Hg5 mi
12:50 AM61 °FSprinkles. Mostly cloudy.1 mph88%30.04 "HgN/A
12:20 AM61 °FLight rain. Clear.No wind88%30.04 "HgN/A
11:50 PM
Sep 19
61 °FClear.No wind88%30.04 "Hg10 mi
11:20 PM59 °FClear.2 mph94%30.01 "Hg6 mi
10:50 PM61 °FClear.1 mph88%30.01 "Hg10 mi
10:20 PM61 °FCool.1 mph88%30.01 "Hg1 mi
9:50 PM61 °FClear.1 mph88%30.01 "Hg6 mi
9:20 PM63 °FClear.2 mph83%30.01 "Hg10 mi
8:50 PM63 °FClear.2 mph88%30.01 "Hg10 mi
8:20 PM63 °FSunny.2 mph83%29.98 "Hg10 mi
7:50 PM64 °FSunny.1 mph83%29.98 "Hg10 mi
7:20 PM66 °FMostly cloudy.No wind78%29.98 "HgN/A
6:50 PM68 °FMore clouds than sun.No wind73%29.98 "HgN/A
6:20 PM68 °FOvercast.3 mph73%29.98 "HgN/A
5:50 PM68 °FSunny.2 mph73%29.98 "Hg10 mi
5:20 PM70 °FSunny.3 mph69%29.98 "Hg10 mi
4:50 PM72 °FPassing clouds.5 mph57%29.98 "HgN/A
4:20 PM73 °FSunny.2 mph50%29.95 "Hg10 mi
3:50 PM75 °FSunny.8 mph47%29.98 "Hg10 mi
3:20 PM75 °FSunny.7 mph50%29.98 "Hg10 mi
2:50 PM73 °FSunny.8 mph50%29.98 "Hg10 mi
2:20 PM73 °FSunny.6 mph50%29.98 "Hg10 mi
1:50 PM73 °FSunny.5 mph53%29.98 "Hg10 mi
1:20 PM73 °FSunny.5 mph53%29.98 "Hg10 mi
12:50 PM73 °FSunny.2 mph50%29.98 "Hg10 mi
12:20 PM72 °FSunny.3 mph61%29.98 "Hg10 mi
11:50 AM70 °FSunny.2 mph60%29.98 "Hg10 mi
11:20 AM68 °FSunny.3 mph64%29.98 "Hg10 mi
10:50 AM64 °FSunny.2 mph73%29.98 "Hg10 mi
10:20 AM64 °FSunny.3 mph73%30.01 "Hg10 mi
9:50 AM61 °FSunny.3 mph88%30.01 "Hg10 mi
9:20 AM61 °FSunny.2 mph83%30.01 "Hg10 mi
8:50 AM59 °FSunny.No wind88%29.98 "Hg10 mi
8:20 AM57 °FClear.No wind94%29.98 "Hg4 mi
7:50 AM57 °FClear.2 mph94%29.98 "Hg10 mi
7:20 AM55 °FClear.2 mph94%29.98 "Hg10 mi
6:50 AM55 °FClear.2 mph94%29.98 "Hg10 mi
6:20 AM57 °FClear.2 mph88%29.95 "Hg10 mi
5:50 AM57 °FClear.3 mph88%29.95 "Hg10 mi
4:50 AM57 °FClear.1 mph94%29.95 "Hg10 mi
4:20 AM57 °FFog.3 mph88%29.95 "Hg2 mi
3:50 AM59 °FClear.1 mph82%29.95 "Hg6 mi
3:20 AM59 °FClear.3 mph88%29.95 "Hg6 mi
2:50 AM59 °FSprinkles. Overcast.5 mph88%29.95 "HgN/A
2:20 AM59 °FMostly cloudy.2 mph82%29.95 "HgN/A
Weather by CustomWeather, © 2014

See weather overviewHow to use our weather pages